Location: Unspecified
(64.9000°N, 0.0000°E)
Time: 21:19:54
(UTC+00:00)

Transit 2A Rocket - Pass Details

Date: 27 June 2019
Orbit: 588 x 915 km, 66.7° (Epoch: 17 July)

Event Time Altitude Azimuth Distance (km) Brightness Sun altitude
Rises 13:50:10 0° 279° (W) 3,482 8.7 44.9°
Reaches altitude 10° 13:52:45 10° 281° (WNW) 2,507 8.0 44.8°
Maximum altitude 13:58:34 76° 8° (N) 843 5.8 44.4°
Drops below altitude 10° 14:03:52 10° 94° (E) 2,293 7.3 44.0°
Sets 14:06:09 0° 97° (E) 3,165 7.9 43.9°
